When you browse on this site, cookies collect data to enhance your experience and personalize the content and advertising you see.
Visit our Privacy Policy to learn more. By continuing to use the site, you agree to this use of cookies and data.
  • In United Kingdom
  • List of Countries
  • For 7 days
  • Water Temperature
  • Weather Map
  • Weather Widgets
  • user-avatar
    Login

    Hourly Weather Kalgoorlie

    Today, 3 June, Wednesday

    Time Temperature Precipitation Wind Pressure Humidity
    00:00 +13°C° 0 mm 4 mps 738 mmHg 51%
    01:00 +13°C° 0 mm 4 mps 738 mmHg 52%
    02:00 +12°C° 0 mm 4 mps 737 mmHg 54%
    03:00 +12°C° 0 mm 4 mps 737 mmHg 57%
    04:00 +12°C° 0 mm 4 mps 737 mmHg 59%
    05:00 +11°C° 0 mm 4 mps 737 mmHg 61%
    06:00 +12°C° 0 mm 4 mps 738 mmHg 61%
    07:00 +12°C° 0 mm 4 mps 738 mmHg 61%
    08:00 +13°C° 0 mm 5 mps 738 mmHg 61%
    09:00 +15°C° 0 mm 5 mps 738 mmHg 55%
    10:00 +17°C° 0 mm 5 mps 738 mmHg 48%
    11:00 +20°C° 0 mm 5 mps 737 mmHg 41%
    12:00 +21°C° 0 mm 5 mps 737 mmHg 39%
    13:00 +21°C° 0 mm 4 mps 736 mmHg 36%
    14:00 +22°C° 0 mm 4 mps 736 mmHg 31%
    15:00 +21°C° 0 mm 4 mps 736 mmHg 33%
    16:00 +20°C° 0 mm 3 mps 736 mmHg 34%
    17:00 +19°C° 0 mm 3 mps 736 mmHg 36%
    18:00 +18°C° 0 mm 3 mps 736 mmHg 38%
    19:00 +18°C° 0 mm 3 mps 736 mmHg 39%
    20:00 +17°C° 0 mm 4 mps 736 mmHg 41%
    21:00 +15°C° 0 mm 4 mps 736 mmHg 43%
    22:00 +15°C° 0 mm 4 mps 736 mmHg 46%
    23:00 +14°C° 0 mm 4 mps 737 mmHg 48%

    Tomorrow, 4 June, Thursday

    Time Temperature Precipitation Wind Pressure Humidity
    00:00 +14°C° 0 mm 4 mps 736 mmHg 50%
    01:00 +13°C° 0 mm 4 mps 736 mmHg 52%
    02:00 +13°C° 0 mm 4 mps 736 mmHg 53%
    03:00 +13°C° 0 mm 4 mps 736 mmHg 54%
    04:00 +12°C° 0 mm 4 mps 736 mmHg 54%
    05:00 +12°C° 0 mm 4 mps 736 mmHg 55%
    06:00 +12°C° 0 mm 4 mps 736 mmHg 53%
    07:00 +13°C° 0 mm 3 mps 736 mmHg 51%
    08:00 +13°C° 0 mm 3 mps 736 mmHg 49%
    09:00 +17°C° 0 mm 4 mps 737 mmHg 42%
    10:00 +19°C° 0 mm 4 mps 737 mmHg 35%
    11:00 +22°C° 0 mm 4 mps 737 mmHg 28%
    12:00 +23°C° 0 mm 4 mps 736 mmHg 27%
    13:00 +24°C° 0 mm 3 mps 735 mmHg 25%
    14:00 +25°C° 0 mm 3 mps 735 mmHg 24%
    15:00 +24°C° 0 mm 2 mps 735 mmHg 27%
    16:00 +21°C° 0 mm 2 mps 735 mmHg 30%
    17:00 +20°C° 0 mm 1 mps 735 mmHg 33%
    18:00 +19°C° 0 mm 2 mps 735 mmHg 33%
    19:00 +19°C° 0 mm 2 mps 735 mmHg 33%
    20:00 +18°C° 0 mm 3 mps 736 mmHg 34%
    21:00 +18°C° 0 mm 3 mps 736 mmHg 34%
    22:00 +17°C° 0 mm 3 mps 736 mmHg 35%
    23:00 +17°C° 0 mm 3 mps 736 mmHg 36%

    Day after tomorrow, 5 June, Friday

    Time Temperature Precipitation Wind Pressure Humidity
    00:00 +16°C° 0 mm 3 mps 736 mmHg 38%
    01:00 +16°C° 0 mm 3 mps 735 mmHg 39%
    02:00 +14°C° 0 mm 3 mps 735 mmHg 40%
    03:00 +14°C° 0 mm 3 mps 735 mmHg 41%
    04:00 +13°C° 0 mm 3 mps 735 mmHg 41%
    05:00 +14°C° 0 mm 2 mps 736 mmHg 42%
    06:00 +15°C° 0 mm 2 mps 736 mmHg 41%
    07:00 +15°C° 0 mm 2 mps 736 mmHg 40%
    08:00 +16°C° 0 mm 2 mps 737 mmHg 39%
    09:00 +18°C° 0 mm 2 mps 737 mmHg 34%
    10:00 +20°C° 0 mm 2 mps 737 mmHg 30%
    11:00 +23°C° 0 mm 2 mps 737 mmHg 26%
    12:00 +24°C° 0 mm 2 mps 736 mmHg 25%
    13:00 +24°C° 0 mm 1 mps 736 mmHg 24%
    14:00 +25°C° 0 mm 1 mps 735 mmHg 23%
    15:00 +24°C° 0 mm 1 mps 735 mmHg 25%
    16:00 +21°C° 0 mm 2 mps 735 mmHg 28%
    17:00 +20°C° 0 mm 2 mps 735 mmHg 30%
    18:00 +20°C° 0 mm 2 mps 735 mmHg 32%
    19:00 +19°C° 0 mm 3 mps 736 mmHg 33%
    20:00 +18°C° 0 mm 3 mps 736 mmHg 34%
    21:00 +18°C° 0 mm 3 mps 736 mmHg 37%
    22:00 +17°C° 0 mm 4 mps 736 mmHg 39%
    23:00 +17°C° 0 mm 4 mps 736 mmHg 41%

    6 June, Saturday

    Time Temperature Precipitation Wind Pressure Humidity
    00:00 +15°C° 0 mm 4 mps 736 mmHg 42%
    01:00 +15°C° 0 mm 4 mps 735 mmHg 43%
    02:00 +14°C° 0 mm 4 mps 735 mmHg 44%
    03:00 +14°C° 0 mm 3 mps 735 mmHg 45%
    04:00 +13°C° 0 mm 3 mps 735 mmHg 47%
    05:00 +12°C° 0 mm 3 mps 735 mmHg 48%
    06:00 +13°C° 0 mm 3 mps 735 mmHg 47%
    07:00 +13°C° 0 mm 3 mps 736 mmHg 46%
    08:00 +14°C° 0 mm 3 mps 736 mmHg 45%
    09:00 +16°C° 0 mm 3 mps 736 mmHg 40%
    10:00 +18°C° 0 mm 4 mps 736 mmHg 36%
    11:00 +20°C° 0 mm 4 mps 737 mmHg 31%
    12:00 +21°C° 0 mm 4 mps 736 mmHg 30%
    13:00 +22°C° 0 mm 4 mps 735 mmHg 28%
    14:00 +22°C° 0 mm 5 mps 735 mmHg 26%
    15:00 +21°C° 0 mm 4 mps 735 mmHg 28%
    16:00 +20°C° 0 mm 4 mps 735 mmHg 30%
    17:00 +19°C° 0 mm 3 mps 735 mmHg 31%
    18:00 +18°C° 0 mm 4 mps 735 mmHg 33%
    19:00 +17°C° 0 mm 4 mps 735 mmHg 35%
    20:00 +17°C° 0 mm 4 mps 735 mmHg 37%
    21:00 +15°C° 0 mm 4 mps 735 mmHg 39%
    22:00 +15°C° 0 mm 4 mps 735 mmHg 41%
    23:00 +14°C° 0 mm 4 mps 735 mmHg 42%

    7 June, Sunday

    Time Temperature Precipitation Wind Pressure Humidity
    00:00 +14°C° 0 mm 4 mps 735 mmHg 43%
    01:00 +13°C° 0 mm 4 mps 735 mmHg 45%
    02:00 +13°C° 0 mm 4 mps 734 mmHg 46%
    03:00 +13°C° 0 mm 4 mps 734 mmHg 47%
    04:00 +12°C° 0 mm 4 mps 734 mmHg 48%
    05:00 +12°C° 0 mm 4 mps 734 mmHg 49%
    06:00 +12°C° 0 mm 4 mps 734 mmHg 48%
    07:00 +12°C° 0 mm 4 mps 735 mmHg 47%
    08:00 +13°C° 0 mm 4 mps 735 mmHg 47%
    09:00 +14°C° 0 mm 4 mps 735 mmHg 41%
    10:00 +17°C° 0 mm 4 mps 735 mmHg 36%
    11:00 +19°C° 0 mm 4 mps 735 mmHg 31%
    12:00 +20°C° 0 mm 4 mps 734 mmHg 30%
    13:00 +20°C° 0 mm 4 mps 734 mmHg 29%
    14:00 +21°C° 0 mm 3 mps 733 mmHg 28%
    15:00 +19°C° 0 mm 3 mps 733 mmHg 30%
    16:00 +18°C° 0 mm 3 mps 733 mmHg 32%
    17:00 +17°C° 0 mm 2 mps 733 mmHg 35%
    18:00 +17°C° 0 mm 3 mps 734 mmHg 37%
    19:00 +16°C° 0 mm 3 mps 734 mmHg 40%
    20:00 +14°C° 0 mm 3 mps 735 mmHg 42%
    21:00 +14°C° 0 mm 4 mps 735 mmHg 45%
    22:00 +13°C° 0 mm 4 mps 735 mmHg 48%
    23:00 +13°C° 0 mm 4 mps 735 mmHg 52%

    8 June, Monday

    Time Temperature Precipitation Wind Pressure Humidity
    00:00 +12°C° 0 mm 4 mps 735 mmHg 54%
    01:00 +12°C° 0 mm 3 mps 735 mmHg 56%
    02:00 +11°C° 0 mm 3 mps 735 mmHg 59%
    03:00 +11°C° 0 mm 3 mps 735 mmHg 61%
    04:00 +10°C° 0 mm 3 mps 735 mmHg 62%
    05:00 +10°C° 0 mm 2 mps 735 mmHg 64%
    06:00 +10°C° 0 mm 2 mps 735 mmHg 62%
    07:00 +12°C° 0 mm 2 mps 735 mmHg 60%
    08:00 +12°C° 0 mm 2 mps 736 mmHg 58%
    09:00 +14°C° 0 mm 2 mps 736 mmHg 52%
    10:00 +16°C° 0 mm 2 mps 735 mmHg 45%
    11:00 +18°C° 0 mm 2 mps 735 mmHg 39%
    12:00 +18°C° 0 mm 2 mps 735 mmHg 36%
    13:00 +19°C° 0 mm 2 mps 734 mmHg 34%
    14:00 +20°C° 0 mm 2 mps 734 mmHg 31%
    15:00 +19°C° 0 mm 2 mps 734 mmHg 34%
    16:00 +17°C° 0 mm 2 mps 734 mmHg 37%
    17:00 +16°C° 0 mm 2 mps 734 mmHg 39%
    18:00 +16°C° 0 mm 2 mps 734 mmHg 41%
    19:00 +15°C° 0 mm 2 mps 735 mmHg 42%
    20:00 +15°C° 0 mm 2 mps 735 mmHg 44%
    21:00 +13°C° 0 mm 3 mps 735 mmHg 46%
    22:00 +13°C° 0 mm 3 mps 735 mmHg 48%
    23:00 +12°C° 0 mm 3 mps 735 mmHg 51%
    Show more